Wind_Speed
11 10 10 10 9 10 10 8 9 9 9 9 9 9 10 11 10 2 2 4 8 4 8 6 6 5 4 6 8 7 4 7 4 9 9 10 7 3 2 10 6 2 3 21 23
11 11 10 10 10 10 11 9 8 9 10 10 10 10 11 13 3 5 2 3 6 6 11 7 6 5 11 8 6 9 3 10 8 5 8 8 3 7 5 11 6 4 13 20 24
12 12 12 11 11 10 11 11 9 9 9 10 10 10 10 10 2 6 5 7 8 11 5 3 3 9 18 6 2 3 7 2 5 10 5 8 3 4 10 7 16 14 16 21 22
13 13 13 13 12 11 11 12 11 9 9 8 9 9 10 5 1 3 6 6 9 11 5 3 8 22 8 5 1 8 7 2 1 5 5 4 3 6 2 8 4 15 19 22 22
15 14 14 14 13 12 11 12 12 10 9 8 7 8 9 7 8 3 6 7 7 8 7 5 12 16 8 2 5 3 4 2 3 3 4 4 3 2 5 4 8 15 21 22 21
15 15 15 14 13 13 12 11 12 12 10 8 7 7 8 10 3 3 6 7 7 8 7 6 8 10 9 4 8 2 5 6 5 7 6 5 5 4 9 8 11 17 22 21 20
16 15 15 15 13 12 12 11 11 11 10 8 7 6 9 3 3 3 11 10 7 8 9 7 9 12 11 10 1 7 13 14 10 9 5 8 10 9 11 12 14 19 20 20 19
17 16 15 13 13 11 9 9 9 8 8 7 5 4 7 3 5 9 12 10 9 9 8 9 11 17 18 12 29 14 26 10 12 5 7 9 7 11 15 15 16 19 20 19 19
16 16 14 12 10 9 7 5 6 5 4 4 2 4 8 2 8 11 11 9 9 9 10 12 14 20 20 26 8 2 4 7 11 8 5 9 7 13 16 18 18 19 22 21 20
17 14 12 9 6 5 5 2 2 3 3 3 6 7 11 5 10 12 12 10 9 9 13 16 19 18 15 13 4 10 9 6 9 8 7 9 13 9 16 18 18 20 23 23 22
18 14 9 5 2 2 2 2 5 6 13 14 3 15 5 3 7 9 13 11 12 12 16 18 12 9 26 8 8 11 11 8 7 4 5 8 12 12 19 20 18 22 23 25 25
15 10 3 2 4 5 4 3 5 4 9 12 13 12 6 6 6 10 13 14 17 16 19 17 15 14 7 10 11 13 14 10 7 12 10 7 8 8 19 19 21 21 21 24 27
12 6 3 5 7 7 2 2 3 4 9 11 9 12 12 16 18 16 17 19 20 16 19 19 20 4 5 12 13 16 4 9 13 16 17 6 16 11 13 20 21 21 21 23 27
10 6 6 9 8 5 3 3 6 4 6 12 11 7 8 10 21 23 21 20 19 21 21 19 20 13 10 16 14 19 11 10 14 14 14 6 7 24 12 16 18 22 23 24 26
12 8 8 2 6 1 2 6 5 3 6 5 9 5 6 11 6 14 22 21 22 22 17 21 21 15 17 16 13 14 15 13 18 16 20 8 5 4 20 17 19 20 25 25 26
12 8 6 4 2 2 5 6 4 7 2 8 4 6 13 14 14 6 10 19 22 21 24 26 29 21 11 15 14 13 15 19 20 19 16 14 17 5 15 8 8 23 21 27 27
12 10 5 2 2 5 5 5 7 7 2 4 1 4 4 2 8 10 13 15 14 17 21 23 27 25 21 20 20 18 18 13 16 9 9 14 7 13 19 9 6 4 15 24 28
8 8 9 7 6 6 5 10 9 7 4 4 5 9 13 3 8 8 10 13 16 18 18 16 16 24 23 22 17 19 19 14 16 15 6 11 12 12 6 7 7 4 8 20 29
5 5 5 9 7 3 10 9 5 7 6 8 12 12 13 8 7 5 9 14 9 9 13 16 18 20 9 10 16 17 19 19 22 21 19 13 15 10 13 1 7 12 7 15 26
5 4 7 9 4 3 8 7 4 6 9 10 13 2 13 7 4 13 6 5 7 2 10 15 18 17 13 10 13 17 16 15 11 20 21 18 12 7 9 6 5 9 8 9 22
3 6 6 9 2 10 7 6 1 3 8 7 11 11 12 12 10 13 13 4 1 10 10 14 17 18 17 8 16 17 17 17 19 17 15 15 15 16 4 10 1 10 10 3 18
6 4 9 7 11 3 4 4 3 7 3 7 7 11 12 12 13 14 15 7 6 11 13 15 10 15 21 16 14 12 18 16 12 21 15 19 17 13 9 9 7 12 9 9 7
9 4 9 7 4 3 3 4 4 8 7 7 8 5 13 12 13 12 9 8 7 11 10 14 9 13 19 18 20 13 17 18 20 18 19 16 15 17 8 8 12 10 9 9 7
8 2 6 8 8 8 6 2 6 2 10 6 12 12 13 13 15 13 14 8 3 10 6 8 15 21 18 22 24 18 15 12 17 13 16 16 21 19 8 11 9 5 8 6 9
10 5 6 5 7 10 7 5 8 6 5 12 7 5 7 9 15 17 16 14 13 4 11 13 20 21 23 24 25 26 23 22 22 19 20 17 15 15 12 11 8 3 5 3 7
8 7 10 8 6 8 5 5 8 7 8 10 9 11 12 14 14 18 19 18 17 18 19 17 19 20 25 23 26 28 27 26 28 26 26 26 25 21 21 21 6 1 1 2 3
12 8 8 2 7 7 5 7 10 10 6 3 9 11 14 15 18 22 25 27 24 20 20 20 17 18 24 22 22 27 26 28 26 28 25 27 28 23 21 18 21 12 4 5 3
Wind_Direction
342 342 339 338 336 332 334 336 333 331 332 333 330 330 331 329 322 279 289 239 216 175 157 163 185 220 241 275 256 277 256 79 59 132 110 132 146 156 106 130 186 150 188 158 160
331 330 328 326 327 324 324 327 326 325 328 332 334 335 340 341 0 229 245 150 168 153 138 174 206 211 251 221 227 241 243 54 6 22 105 140 190 141 217 143 126 152 111 147 160
322 320 320 319 318 316 315 317 321 317 320 326 330 332 343 347 250 122 139 107 132 143 164 214 232 226 236 217 149 140 61 9 74 28 356 108 189 167 239 18 175 169 152 161 165
317 313 311 311 310 310 308 309 313 312 311 319 325 329 341 322 74 146 149 126 121 132 187 207 231 234 219 63 133 275 109 107 88 124 138 140 146 212 246 51 111 163 167 168 173
310 308 305 302 303 303 304 303 305 306 303 309 316 321 326 262 70 152 168 170 155 146 206 264 286 333 26 18 211 266 59 258 216 198 230 128 169 65 156 110 139 151 167 172 178
306 303 300 298 296 298 300 299 298 300 300 297 301 309 309 262 68 168 175 180 181 196 242 273 335 331 287 310 298 26 248 246 194 195 206 223 209 210 138 156 148 162 172 177 182
309 300 294 294 294 291 296 300 294 293 293 293 289 300 276 329 165 186 178 185 203 227 268 280 297 300 325 278 239 244 223 177 171 175 184 219 202 202 149 164 160 170 178 180 182
313 305 295 288 291 290 287 298 300 290 279 284 289 290 282 210 184 190 196 209 225 236 257 282 283 283 260 283 341 93 292 145 104 159 151 226 167 178 166 175 172 179 183 185 186
318 310 300 290 287 291 289 296 304 292 270 267 298 240 252 219 196 202 195 213 225 240 258 269 282 264 277 90 264 69 28 57 132 137 154 216 336 152 175 182 178 188 186 190 191
324 315 304 289 283 276 281 277 287 278 221 213 226 249 212 221 187 196 205 222 228 250 258 248 248 254 0 285 65 9 351 41 49 104 195 216 243 164 184 195 187 190 192 194 194
323 312 301 280 253 201 223 225 238 224 216 232 262 225 152 191 171 196 203 214 231 248 264 223 277 266 229 13 347 303 306 324 64 117 295 248 228 218 180 203 201 187 198 195 200
336 328 304 172 148 134 111 264 21 4 285 223 241 248 240 205 222 210 201 208 213 250 244 241 243 271 28 311 307 290 273 7 331 333 275 248 293 239 184 199 203 196 196 200 199
351 0 108 133 141 140 54 111 350 326 253 167 219 238 232 222 239 239 200 224 258 244 262 270 268 253 271 290 282 279 335 331 328 315 293 221 11 245 199 181 203 207 200 202 199
19 64 106 123 120 152 147 327 327 298 263 143 190 172 206 229 252 238 213 235 237 250 256 269 275 280 315 282 282 279 22 328 301 304 306 248 168 262 163 181 196 207 208 202 201
42 70 113 83 122 263 274 321 314 259 248 138 131 150 205 235 10 208 229 220 249 256 244 252 260 257 239 268 312 307 313 296 291 283 277 24 45 235 265 176 187 203 206 208 201
40 58 90 61 64 293 302 307 310 232 240 144 164 201 218 208 234 206 224 229 246 250 254 267 273 267 266 273 286 293 288 277 265 258 263 144 238 106 293 52 23 174 197 205 203
35 41 52 94 298 302 300 272 235 265 117 123 240 262 264 193 218 225 222 211 225 225 244 250 248 253 244 250 255 247 259 273 266 259 285 327 285 161 279 60 49 8 181 194 200
38 25 27 16 320 302 272 249 268 48 333 54 271 286 265 33 213 253 252 254 215 250 275 277 241 227 231 228 253 263 264 264 289 281 200 299 259 121 320 117 36 33 348 180 191
340 8 20 337 313 278 259 243 2 25 5 324 292 250 262 187 273 277 233 283 16 350 311 297 267 261 267 241 235 244 241 260 275 282 286 260 231 287 182 62 38 17 50 168 181
287 279 3 348 322 241 247 284 24 347 323 296 289 338 299 326 316 287 279 69 302 322 313 294 297 290 286 232 247 269 279 277 235 254 269 281 282 257 136 156 60 38 44 166 179
267 248 6 345 321 236 269 54 355 20 335 324 326 306 296 304 292 289 292 117 50 302 300 291 289 283 284 235 256 263 223 237 274 277 267 247 253 257 70 96 83 79 24 78 191
298 277 354 336 261 295 347 10 14 312 283 292 282 290 293 311 294 286 281 280 84 327 297 298 312 286 281 267 239 286 290 282 220 241 258 274 275 48 156 151 76 60 33 50 323
330 352 350 323 304 38 92 251 283 320 330 321 302 308 321 298 302 293 288 38 359 314 341 340 259 265 260 251 257 234 247 257 265 277 270 273 250 250 229 141 88 66 36 37 27
326 312 29 53 24 334 355 317 293 137 297 313 297 300 285 284 284 270 271 287 167 279 30 315 275 269 272 285 298 307 296 276 278 264 254 247 280 282 146 143 97 86 55 36 31
7 50 360 355 13 340 330 339 311 320 348 303 291 242 323 303 306 297 291 300 290 306 268 256 267 274 279 283 280 280 277 276 275 272 273 278 270 269 267 102 91 23 57 42 26
26 354 338 280 284 309 139 58 307 352 325 303 310 325 316 294 300 301 304 288 279 286 279 272 272 276 272 272 277 274 268 266 260 257 264 272 270 273 285 301 314 288 57 280 4
14 347 309 257 325 318 19 335 322 321 322 306 316 304 296 303 312 296 288 283 278 281 275 278 278 278 272 276 274 262 250 257 261 260 257 252 256 262 259 267 276 267 226 239 293
Height
1529 1528 1526 1524 1523 1521 1520 1519 1517 1516 1515 1514 1513 1511 1510 1508 1506 1505 1507 1507 1505 1505 1506 1509 1509 1509 1509 1505 1501 1498 1500 1494 1485 1502 1484 1489 1489 1496 1498 1500 1503 1506 1504 1512 1519
1528 1527 1525 1523 1522 1520 1518 1518 1517 1515 1514 1513 1512 1510 1509 1506 1504 1507 1507 1505 1505 1505 1506 1509 1508 1508 1504 1499 1494 1489 1489 1486 1482 1479 1481 1487 1489 1492 1496 1497 1502 1508 1508 1514 1520
1527 1525 1524 1522 1521 1519 1517 1516 1516 1514 1513 1512 1511 1510 1508 1506 1505 1506 1506 1505 1505 1505 1509 1509 1507 1503 1494 1486 1487 1478 1485 1485 1483 1484 1485 1485 1489 1492 1487 1496 1501 1507 1511 1516 1520
1526 1524 1522 1520 1519 1518 1516 1514 1514 1513 1512 1511 1510 1508 1507 1505 1502 1504 1505 1505 1505 1505 1509 1508 1500 1488 1478 1476 1485 1481 1483 1484 1485 1487 1487 1486 1488 1489 1491 1493 1495 1501 1509 1515 1518
1523 1521 1520 1518 1517 1516 1515 1513 1512 1512 1511 1510 1509 1508 1507 1505 1504 1503 1504 1505 1505 1506 1507 1504 1491 1475 1477 1482 1479 1478 1480 1483 1484 1486 1486 1486 1486 1487 1490 1496 1497 1502 1509 1513 1517
1520 1518 1516 1515 1515 1513 1513 1512 1510 1510 1510 1509 1509 1508 1506 1502 1505 1503 1504 1505 1507 1508 1506 1504 1499 1494 1487 1480 1474 1478 1479 1477 1478 1481 1483 1485 1485 1489 1490 1495 1498 1503 1508 1511 1514
1516 1515 1513 1512 1512 1511 1510 1510 1509 1508 1508 1508 1508 1507 1506 1505 1506 1503 1504 1506 1508 1508 1505 1503 1501 1497 1488 1476 1478 1475 1471 1466 1470 1476 1478 1482 1483 1483 1486 1492 1497 1502 1506 1509 1512
1513 1511 1510 1509 1508 1508 1508 1508 1507 1506 1506 1506 1507 1507 1504 1503 1505 1504 1506 1507 1507 1506 1505 1502 1499 1494 1488 1479 1489 1474 1481 1475 1465 1473 1476 1480 1478 1478 1483 1490 1494 1498 1504 1507 1511
1511 1508 1506 1506 1506 1505 1506 1506 1505 1504 1505 1505 1506 1507 1500 1500 1503 1504 1505 1506 1506 1505 1503 1500 1497 1487 1476 1495 1518 1461 1472 1466 1467 1468 1471 1479 1473 1471 1479 1484 1489 1495 1499 1504 1509
1508 1505 1503 1503 1503 1503 1503 1504 1504 1503 1503 1504 1505 1509 1500 1497 1500 1502 1503 1505 1504 1503 1500 1496 1488 1475 1481 1475 1501 1476 1468 1465 1466 1463 1466 1472 1472 1467 1475 1478 1482 1490 1494 1500 1504
1504 1502 1500 1500 1501 1502 1502 1502 1505 1504 1503 1495 1494 1493 1496 1498 1500 1500 1501 1503 1502 1500 1492 1481 1479 1473 1480 1467 1468 1468 1465 1464 1457 1457 1461 1460 1459 1458 1465 1473 1475 1480 1486 1492 1499
1501 1499 1499 1500 1501 1501 1501 1501 1501 1503 1496 1493 1494 1495 1496 1497 1496 1496 1500 1500 1495 1492 1482 1478 1478 1463 1465 1468 1467 1465 1462 1466 1454 1451 1451 1454 1456 1449 1452 1463 1468 1473 1479 1484 1492
1500 1498 1499 1500 1501 1502 1502 1502 1501 1502 1496 1489 1490 1491 1491 1494 1492 1489 1495 1494 1489 1484 1479 1479 1464 1486 1468 1470 1470 1460 1465 1467 1467 1454 1439 1444 1486 1452 1447 1455 1462 1466 1471 1477 1483
1500 1499 1500 1501 1504 1504 1503 1502 1501 1501 1489 1482 1485 1486 1489 1490 1486 1485 1485 1491 1484 1483 1478 1473 1464 1463 1471 1473 1466 1467 1455 1462 1463 1462 1462 1434 1512 1475 1446 1448 1454 1460 1464 1469 1476
1503 1502 1502 1503 1503 1504 1505 1503 1501 1501 1499 1476 1479 1484 1485 1485 1479 1477 1480 1483 1482 1478 1475 1476 1467 1467 1470 1467 1461 1467 1458 1462 1459 1458 1448 1451 1474 1479 1443 1441 1440 1449 1454 1461 1467
1507 1505 1505 1505 1505 1505 1503 1503 1503 1499 1495 1476 1474 1476 1476 1476 1477 1476 1479 1480 1480 1476 1473 1469 1463 1461 1463 1465 1465 1464 1464 1460 1451 1447 1463 1450 1449 1472 1461 1430 1427 1432 1444 1451 1459
1509 1507 1506 1505 1507 1504 1504 1503 1495 1488 1473 1477 1473 1472 1470 1469 1469 1471 1471 1473 1479 1486 1480 1466 1461 1457 1460 1465 1461 1463 1464 1478 1473 1472 1471 1441 1447 1457 1445 1424 1428 1430 1433 1442 1451
1511 1509 1508 1506 1506 1505 1505 1497 1498 1480 1478 1477 1477 1474 1474 1467 1467 1468 1470 1469 1459 1463 1464 1465 1465 1447 1444 1453 1461 1457 1456 1468 1488 1468 1464 1475 1453 1436 1424 1420 1425 1423 1427 1431 1444
1511 1509 1510 1508 1505 1504 1504 1492 1482 1486 1490 1486 1479 1477 1469 1467 1473 1467 1464 1462 1456 1461 1472 1464 1458 1436 1435 1438 1446 1456 1463 1447 1456 1447 1452 1439 1436 1415 1414 1420 1425 1424 1428 1431 1440
1511 1509 1509 1507 1505 1505 1498 1495 1488 1495 1496 1488 1489 1476 1478 1466 1474 1465 1460 1466 1469 1472 1471 1465 1470 1444 1441 1442 1446 1450 1448 1465 1451 1483 1483 1448 1441 1436 1422 1422 1424 1428 1428 1432 1438
1510 1504 1508 1507 1505 1500 1491 1488 1494 1498 1501 1494 1487 1486 1481 1479 1476 1475 1470 1467 1474 1474 1472 1467 1464 1458 1442 1448 1454 1445 1450 1454 1452 1446 1462 1465 1444 1407 1412 1419 1425 1428 1434 1432 1435
1509 1499 1507 1506 1500 1495 1489 1499 1505 1497 1499 1497 1495 1489 1487 1483 1483 1479 1475 1469 1479 1481 1476 1463 1464 1467 1450 1433 1432 1439 1442 1439 1461 1469 1448 1443 1438 1413 1411 1420 1425 1433 1439 1440 1439
1510 1508 1508 1503 1493 1493 1499 1498 1503 1502 1498 1499 1496 1492 1493 1492 1494 1478 1475 1475 1483 1485 1479 1473 1469 1471 1459 1443 1434 1438 1441 1440 1438 1436 1450 1453 1438 1403 1410 1427 1433 1439 1443 1443 1443
1516 1505 1508 1508 1509 1505 1505 1499 1501 1503 1505 1506 1502 1499 1495 1491 1486 1484 1482 1477 1484 1488 1490 1492 1478 1474 1473 1454 1437 1448 1439 1437 1437 1444 1441 1445 1435 1418 1416 1424 1434 1440 1444 1447 1447
1522 1523 1525 1511 1509 1513 1509 1507 1505 1503 1506 1506 1501 1499 1501 1503 1492 1488 1480 1477 1477 1482 1486 1485 1480 1470 1459 1453 1449 1445 1447 1446 1448 1441 1444 1434 1435 1424 1416 1425 1436 1439 1445 1449 1450
1530 1531 1527 1519 1515 1512 1510 1505 1511 1510 1514 1506 1506 1504 1506 1506 1502 1501 1495 1492 1489 1484 1482 1476 1475 1470 1467 1459 1456 1452 1444 1443 1441 1441 1441 1438 1434 1422 1424 1424 1431 1438 1446 1448 1451
1539 1537 1533 1520 1515 1511 1511 1515 1516 1516 1512 1514 1514 1512 1509 1506 1506 1505 1502 1496 1491 1487 1483 1480 1475 1475 1469 1455 1452 1451 1441 1440 1436 1431 1432 1438 1428 1427 1426 1427 1431 1435 1444 1448 1452